Location: Chomutov
(50.4500°N, 13.4333°E)
Time: 00:41:35
(UTC+02:00)

FO-29 - Pass Details

Date: 02 October 2021
Orbit: 800 x 1321 km, 98.6° (Epoch: 27 October)

Event Time Altitude Azimuth Distance (km) Brightness Sun altitude
Exits shadow 19:59:32 16° 106° (ESE) 2,870 11.3 -13.1°
Maximum altitude 20:04:32 32° 56° (NE) 2,106 10.9 -13.9°
Drops below altitude 10° 20:11:09 10° 358° (N) 3,312 12.4 -15.0°
Sets 20:14:06 0° 349° (N) 4,243 13.2 -15.4°
